Regional Weather Roundup
Issued by NWS

Home | Current Version | Previous Version | Text Only | Print | Product List | Glossary Off
Versions: 1 2 3 4 5 6 7 8 9 10 11 12 13 14 15 16 17 18 19 20 21 22 23 24 25 26 27 28 29 30 31 32 33 34 35 36 37 38 39 40 41 42 43 44 45 46 47 48 49 50

000
ASUS44 KMEG 060700
RWRTN
TENNESSEE HOURLY STATE WEATHER ROUNDUP
NATIONAL WEATHER SERVICE MEMPHIS TN
200 AM CDT FRI MAY 06 2016

TNZ002-004-019-021-049-052-054-088>092-060800-
WEST TENNESSEE

CITY           SKY/WX    TMP DP  RH WIND       PRES   REMARKS
MEMPHIS INTL   PTCLDY    54  43  66 NE3       30.04S
NWS MEMPHIS      N/A     49 N/A N/A MISG        N/A
JACKSON        CLEAR     44  42  93 CALM      30.02F
DYERSBURG      CLEAR     48  45  87 CALM      30.03S
UNION CITY     CLEAR     45  45 100 CALM      30.01S
LEXINGTON      CLEAR     41  41 100 CALM      29.99F
$$

TNZ008-025-027-028-033-062-065-066-060800-
NORTH MIDDLE TENNESSEE

CITY           SKY/WX    TMP DP  RH WIND       PRES   REMARKS
NASHVILLE      CLEAR     48  43  82 W3        29.97F
CLARKSVILLE    CLEAR     45  42  89 CALM      29.98F
COOKEVILLE     CLEAR     41  41 100 CALM      29.93F
CROSSVILLE     CLEAR     46  42  86 NW10G17   29.92F
$$

TNZ061-075-076-078-094-096-097-060800-
SOUTH MIDDLE TENNESSEE

CITY           SKY/WX    TMP DP  RH WIND       PRES   REMARKS
TULLAHOMA      CLEAR     45  45 100 NW5       29.96F
WINCHESTER     MOCLDY    45  43  93 CALM      29.96F
MCMINNVILLE      N/A     43  43 100 CALM      29.94F
COLUMBIA       CLEAR    N/A N/A N/A CALM      29.97S
SHELBYVILLE    CLEAR     45  45 100 CALM      29.98F
$$

TNZ017-018-042-046-047-060800-
NORTHEAST TENNESSEE

CITY           SKY/WX    TMP DP  RH WIND       PRES   REMARKS
TRI CITIES     CLOUDY    49  43  80 W7        29.82F
$$

TNZ012-013-036-069-073-074-060800-
CENTRAL EAST TENNESSEE

CITY           SKY/WX    TMP DP  RH WIND       PRES   REMARKS
KNOXVILLE      CLOUDY    49  43  80 SW7       29.90S
OAK RIDGE      PTCLDY    47  42  83 CALM      29.91F
GATLINBURG     CLOUDY    48  39  71 CALM      29.89F
$$

TNZ083-085-099-060800-
SOUTHEAST TENNESSEE

CITY           SKY/WX    TMP DP  RH WIND       PRES   REMARKS
CHATTANOOGA    CLEAR     48  42  80 SW3       29.93F
$$

SKY/WX REPORTED AS FAIR MEANS FEW OR NO CLOUDS BELOW
12 THOUSAND FEET.




USA.gov is the U.S. government's official web portal to all federal, state and local government web resources and services.